Regional Weather Roundup
Issued by NWS

Home | Current Version | Previous Version | Text Only | Print | Product List | Glossary Off
Versions: 1 2 3 4 5 6 7 8 9 10 11 12 13 14 15 16 17 18 19 20 21 22 23 24 25 26 27 28 29 30 31 32 33 34 35 36 37 38 39 40 41 42 43 44

000
ASUS43 KDMX 250907
RWRIA

WEATHER ROUNDUP FOR IOWA
NATIONAL WEATHER SERVICE DES MOINES IA
300 AM CST THU DEC 25 2014

NOTE: "FAIR" INDICATES FEW OR NO CLOUDS BELOW 12,000 FEET WITH NO
SIGNIFICANT WEATHER AND/OR OBSTRUCTIONS TO VISIBILITY.

* - THESE STATIONS ARE NOT NWS STATIONS...THUS NOT UNDER NWS
QUALITY CONTROL.  THEY ALSO DO NOT REPORT WEATHER SUCH
AS PRECIPITATION OR FOG.

IAZ001>003-012>014-020>022-031>034-043>046-251000-
   NORTHWEST IOWA

CITY           SKY/WX    TMP DP  RH WIND       PRES   REMARKS
CARROLL *      CLEAR     28  28 100 S16       29.66S WCI  17
CHEROKEE *     CLEAR     28  27  93 S8        29.60F WCI  20
DENISON *      CLEAR     28  28 100 S13G18    29.63S WCI  18
LE MARS *      CLEAR     30  28  93 S13G18    29.59S WCI  20
ORANGE CITY *  CLEAR     28  25  86 S8        29.57S WCI  20
SHELDON *      CLEAR     27  27 100 S9        29.58R WCI  17
SIOUX CITY     CLEAR     29  26  89 SE8       29.60S WCI  21
SPENCER        CLEAR     28  25  88 S15       29.60F FOG     WCI  16
STORM LAKE *   CLEAR     27  25  93 S15       29.62S WCI  15
$$

IAZ055>058-069>071-079>083-090>094-251000-
   SOUTHWEST IOWA

CITY           SKY/WX    TMP DP  RH WIND       PRES   REMARKS
ATLANTIC *     CLEAR     30  28  93 S13       29.68S WCI  20
AUDUBON *      CLEAR     28  25  86 S8        29.68S WCI  20
CLARINDA *     CLEAR     30  28  93 S8        29.74S WCI  23
COUNCIL BLFS * CLEAR     28  28 100 S10       29.65S WCI  19
CRESTON *      CLEAR     28  28 100 S10G16    29.73R WCI  19
HARLAN  *      CLEAR     28  30 100 S8        29.70S WCI  20
LAMONI         CLEAR     30  27  88 S13       29.76S WCI  20
RED OAK *      CLEAR     30  28  93 S10       29.70S WCI  21
SHENANDOAH *   CLEAR     30  28  93 S8        29.72S WCI  23
$$

IAZ047>049-059>061-072>074-084-251000-
   CENTRAL IOWA

CITY           SKY/WX    TMP DP  RH WIND       PRES   REMARKS
AMES           CLOUDY    31  28  89 S12       29.73S WCI  22
ANKENY *       CLOUDY    32  28  86 S10       29.75R WCI  24
CHARITON *     MOCLDY    32  30  93 S12       29.77S WCI  23
DES MOINES     PTCLDY    32  28  85 S9        29.75R WCI  24
GRINNELL*      CLOUDY    30  28  93 SW9       29.77R WCI  22
KNOXVILLE *    CLOUDY    32  28  86 SW10      29.76R WCI  24
MARSHALLTOWN   CLOUDY    30  28  92 SW12      29.74R WCI  20
PELLA *        CLOUDY    32  28  86 SW10      29.79R WCI  24
PERRY *          N/A     30  30 100 S9        29.71F WCI  22
$$

IAZ004>006-015-016-023>025-035-036-251000-
   NORTH CENTRAL IOWA

CITY           SKY/WX    TMP DP  RH WIND       PRES   REMARKS
ALGONA *       CLOUDY    30  30 100 S17G24    29.66R FOG     WCI  18
CLARION *      CLOUDY    30  30 100 S17       29.69R WCI  18
ESTHERVILLE    CLOUDY    28  27  96 S16       29.62R WCI  16
FORT DODGE *   CLOUDY    30  27  86 S13       29.69R WCI  20
MASON CITY     CLOUDY    29  26  89 SW16      29.69R WCI  17
FOREST CITY *  CLOUDY    30  28  93 S10       29.67S WCI  21
IOWA FALLS *   CLOUDY    30  28  93 SW16      29.73R WCI  19
$$

IAZ007>011-017>019-026>030-037>042-050>054-066-251000-
   NORTHEAST IOWA

CITY           SKY/WX    TMP DP  RH WIND       PRES   REMARKS
CEDAR RAPIDS   CLOUDY    31  28  89 SW15      29.77R WCI  20
CHARLES CITY * CLOUDY    28  28 100 SW12      29.71R WCI  18
CLINTON *      CLOUDY    32  27  80 W16       29.82R WCI  21
DECORAH *      CLOUDY    28  27  93 SW9G21    29.70R WCI  20
DUBUQUE        LGT SNOW  31  28  89 SW14      29.74R FOG     WCI  21
MONTICELLO *   CLOUDY    32  30  93 W12       29.77R WCI  23
OELWEIN *      CLOUDY    30  28  93 SW16      29.74R WCI  19
WATERLOO       MIX PCPN  30  27  88 SW12      29.74R WCI  20
$$

IAZ064-065-067-068-078-251000-
   EAST CENTRAL IOWA

CITY           SKY/WX    TMP DP  RH WIND       PRES   REMARKS
DAVENPORT      CLOUDY    32  27  81 W20       29.80R WCI  20
IOWA CITY      CLOUDY    33  28  81 SW9       29.82R WCI  25
MT. PLEASANT * CLOUDY    32  28  86 SW10      29.84R WCI  24
MUSCATINE *    CLOUDY    34  30  86 SW12      29.83R WCI  25
QUAD CITIES    FLURRIES  34  28  79 SW15      29.81R WCI  24
$$

IAZ062-063-075>077-085>089-095>099-251000-
   SOUTHEAST IOWA

CITY           SKY/WX    TMP DP  RH WIND       PRES   REMARKS
BURLINGTON     CLOUDY    34  29  82 W12       29.83R WCI  25
FAIRFIELD *    CLOUDY    34  28  80 SW8       29.81S WCI  27
FORT MADISON * CLOUDY    36  32  87 SW8       29.85R WCI  29
KEOKUK *       CLOUDY    36  30  80 SW13G18   29.84S WCI  27
OSKALOOSA *    CLOUDY    32  28  86 SW10G16   29.80R WCI  24
CENTERVILLE *  MOCLDY    32  30  93 S8        29.81R WCI  25
OTTUMWA        CLOUDY    32  28  85 SW12      29.79R WCI  23
WASHINGTON *   CLOUDY    34  34 100 SW10      29.81R WCI  26
$$

ABBREVIATIONS USED IN REMARKS
   TC - TEMPERATURES IN CELSIUS
  WCI - WIND CHILL INDEX
   HX - HEAT INDEX
  VSB - VISIBILITY
$$



USA.gov is the U.S. government's official web portal to all federal, state and local government web resources and services.